Volver al catálogo

COSMOS 1410

ActivoNavegaciónPO
NORAD 13589·PAYLOAD·🇷🇺 Russia

Lanzado Sep 24, 1982 desde Plesetsk Cosmodrome

Loading…

Próximos Pases (próximas 24 horas)

TLE

ActualizadoSource: Space-Track

Época: Sep 14, 2026, 09:12 UTC

1 13589U 82096A   26257.38343711  .00000011  00000-0  57661-5 0  9995
2 13589  82.6068  57.5092 0007065 113.1182 270.7422 12.42353534995033

Sigue COSMOS 1410 en tiempo real con AllMySat

Download on the App Store